This is the latest recevied weather packets stored in our database for station/object WA4ORT. If no packets are shown the sender has not sent any weather packets the latest 10 day(s).
| Time | Temp. | Humidity | Pressure | Rain* | Wind** | Luminosity | Snow |
|---|---|---|---|---|---|---|---|
| 1777579816 | 23.33° C | - | - | 0 mm | 3.58 m/s, 280° | - | - |
| 1777578918 | 23.33° C | - | - | 0 mm | 3.58 m/s, 294° | - | - |
| 1777578023 | 23.33° C | - | - | 0 mm | 3.13 m/s, 283° | - | - |
| 1777577129 | 23.33° C | - | - | 0 mm | 4.02 m/s, 294° | - | - |
| 1777576231 | 23.33° C | - | - | 0 mm | 2.68 m/s, 277° | - | - |
| 1777575336 | 23.33° C | - | - | 0 mm | 2.68 m/s, 301° | - | - |
| 1777574441 | 22.78° C | - | - | 0 mm | 1.79 m/s, 290° | - | - |
| 1777573543 | 22.78° C | - | - | 0 mm | 2.24 m/s, 281° | - | - |
| 1777572649 | 22.22° C | - | - | 0 mm | 3.13 m/s, 300° | - | - |
| 1777571754 | 22.22° C | - | - | 0 mm | 2.24 m/s, 304° | - | - |
| 1777570856 | 22.22° C | - | - | 0 mm | 4.47 m/s, 300° | - | - |
| 1777569962 | 22.22° C | - | - | 0 mm | 3.58 m/s, 285° | - | - |
| 1777569067 | 21.67° C | - | - | 0 mm | 4.02 m/s, 293° | - | - |
| 1777568169 | 21.67° C | - | - | 0 mm | 4.02 m/s, 291° | - | - |
| 1777567275 | 21.67° C | - | - | 0 mm | 3.13 m/s, 329° | - | - |
| 1777566381 | 21.67° C | - | - | 0 mm | 4.02 m/s, 312° | - | - |
| 1777565482 | 21.67° C | - | - | 0 mm | 3.13 m/s, 315° | - | - |
| 1777564587 | 21.11° C | - | - | 0 mm | 3.13 m/s, 302° | - | - |
| 1777563693 | 21.11° C | - | - | 0 mm | 3.13 m/s, 285° | - | - |
| 1777562795 | 21.11° C | - | - | 0 mm | 1.79 m/s, 312° | - | - |
| 1777561900 | 20.56° C | - | - | 0 mm | 1.34 m/s, 281° | - | - |
| 1777561006 | 20.56° C | - | - | 0 mm | 2.24 m/s, 301° | - | - |
| 1777560108 | 20.56° C | - | - | 0 mm | 1.34 m/s, 315° | - | - |
| 1777559213 | 20.56° C | - | - | 0 mm | 1.79 m/s, 287° | - | - |
| 1777558319 | 20.56° C | - | - | 0 mm | 0 m/s | - | - |
* Rain latest hour (hover to see other rain measurements)
** Current wind speed in m/s (hover to see current wind gust speed)